Location: Airlie Beach - Cannonvale QLD, Australia
(20.2768°S, 148.7558°E)
Time: 04:39:30
(UTC+10:00)

BlueWalker 3 - Pass Details

Date: 29 March 2023
Orbit: 494 x 513 km, 53.2° (Epoch: 31 May)

Event Time Altitude Azimuth Distance (km) Brightness Sun altitude
Rises 05:06:45 0° 356° (N) 2,555 5.5 -15.9°
Reaches altitude 10° 05:09:30 10° 17° (NNE) 1,682 4.8 -15.3°
Maximum altitude 05:12:00 17° 58° (ENE) 1,320 4.8 -14.7°
Drops below altitude 10° 05:14:31 10° 99° (E) 1,699 6.0 -14.1°
Sets 05:17:18 0° 120° (ESE) 2,593 6.7 -13.4°
